www.pogodaiklimat.ru

Погода и климат >> Архив погоды >> Великобритания >> Ноттингем


АРХИВ ПОГОДЫ в Ноттингеме

Время (UTC), дата Ветер
(напр.,м/с)
 
Видим.   Явления Облачность Т
(С)
Тd
(С)
f
(%)
Тe
(С)
Тes
(С)
Комфортность P
(гПа)
Po
(гПа)
Тmin
(С)
Tmax
(С)
R
(мм)
R24
(мм)
S
(см)
22 8.06 ЮЗ 4 30 км н/о +10.4 +7.8 84 +8 +8 тепло 1017.6 1003.4
23 8.06 ЮЗ 3 35 км н/о +9.7 +7.0 83 +7 +7 по сезону 1017.8 1003.6
00 9.06 ЮЗ 4 45 км н/о +9.1 +6.8 86 +6 +6 прохладно 1018.5 1004.2
01 9.06 ЮЗ 2 28 км н/о +8.2 +6.8 91 +6 +6 по сезону 1018.7 1004.3
02 9.06 ЮЗ 2 17 км н/о +7.9 +7.1 95 +6 +6 по сезону 1018.9 1004.6
03 9.06 ЮЗ 2 16 км н/о +7.7 +7.2 97 +5 +5 прохладно 1018.9 1004.5
04 9.06 ЮЗ 2 10 км н/о +7.2 +6.6 96 +5 +5 по сезону 1019.4 1005.0
05 9.06 ЮЗ 3 13 км н/о +7.7 +7.2 97 +5 +5 прохладно 1019.5 1005.1
06 9.06 ЮЗ 3 17 км н/о +9.0 +7.9 93 +6 +6 прохладно 1019.7 1005.4 +7.2
07 9.06 ЮЗ 3 19 км н/о +10.9 +8.5 85 +9 +9 по сезону 1020.0 1005.8
08 9.06 ЮЗ 3 14 км н/о +12.3 +8.8 79 +11 +11 по сезону 1020.3 1006.1
09 9.06 ЮЗ 3 25 км н/о +13.3 +8.3 72 +12 +12 по сезону 1020.4 1006.3
10 9.06 Ю 3 35 км н/о +14.7 +9.0 69 +14 +14 по сезону 1020.4 1006.3
11 9.06 Ю 4 21 км н/о +16.4 +7.4 55 +16 +16 по сезону 1019.8 1005.9
12 9.06 СЗ 3 40 км н/о +15.9 +7.1 56 +15 +15 по сезону 1019.5 1005.5
13 9.06 Ю 4 23 км н/о +17.3 +5.9 47 +17 +17 тепло 1019.2 1005.3
14 9.06 ЮЗ 4 20 км н/о +17.4 +5.7 46 +17 +17 тепло 1019.0 1005.1
15 9.06 ЮЗ 2 30 км н/о +17.6 +5.6 45 +18 +18 тепло 1018.7 1004.8
16 9.06 З 5 25 км н/о +16.2 +7.4 56 +15 +15 тепло 1018.7 1004.8
17 9.06 З 3 45 км н/о +17.1 +6.3 49 +17 +17 тепло 1018.4 1004.5
18 9.06 ЮВ 2 35 км н/о +15.7 +6.7 55 +16 +16 по сезону 1018.6 1004.6 +18.1
19 9.06 С 3 40 км в посл. час дождь н/о +15.2 +7.2 59 +15 +15 тепло 1018.9 1004.8
20 9.06 С 2 45 км н/о +13.0 +7.0 67 +13 +13 тепло 1019.0 1004.9
21 9.06 Ю 3 40 км н/о +12.8 +8.0 73 +12 +12 по сезону 1019.6 1005.5
22 9.06 СЗ 2 50 км н/о +12.3 +7.6 73 +12 +12 тепло 1019.3 1005.1
23 9.06 З 1 40 км н/о +11.8 +8.7 81 +13 +13 тепло 1019.1 1004.9
00 10.06 В 2 30 км в посл. час туман н/о +11.0 +9.2 89 +10 +10 по сезону 1019.2 1005.0 0.2
01 10.06 С 1 29 км н/о +10.0 +8.9 93 +9 +9 тепло 1019.0 1004.7
02 10.06 СЗ 1 30 км н/о +10.1 +9.2 94 +9 +9 по сезону 1018.6 1004.4
03 10.06 СЗ 2 22 км н/о +10.0 +8.4 90 +8 +8 по сезону 1018.2 1003.9
04 10.06 С 2 27 км н/о +9.8 +7.8 87 +9 +9 тепло 1018.0 1003.7
05 10.06 С 2 30 км н/о +8.9 +6.7 86 +8 +8 по сезону 1018.0 1003.7
06 10.06 СЗ 1 27 км н/о +9.6 +7.1 84 +9 +9 по сезону 1018.0 1003.7 +8.8 0.2
07 10.06 С 2 30 км н/о +10.9 +7.8 81 +10 +10 по сезону 1017.8 1003.6
08 10.06 С 3 21 км н/о +11.6 +7.6 76 +10 +10 по сезону 1017.9 1003.8
09 10.06 СВ 3 15 км н/о +12.1 +8.5 79 +10 +10 прохладно 1017.7 1003.6
10 10.06 СВ 3 10 км слаб. ливневой дождь н/о +12.6 +10.0 84 +11 +11 прохладно 1017.8 1003.7
11 10.06 СВ 5 2600 м дождь н/о +11.4 +9.4 88 +9 +9 холодно 1018.1 1003.9
12 10.06 СВ 3 3800 м дождь н/о +10.8 +9.8 94 +9 +9 холодно 1017.9 1003.7 4
13 10.06 В 5 35 км слаб. ливневой дождь н/о +11.3 +8.3 82 +9 +9 холодно 1017.6 1003.5
14 10.06 СВ 6 35 км в посл. час дождь н/о +12.8 +9.0 78 +10 +10 прохладно 1017.1 1003.0
15 10.06 СВ 6 12 км слаб. ливневой дождь н/о +10.8 +8.2 84 +8 +8 очень
холодно
1017.2 1003.0
16 10.06 СВ 5 9000 м дождь н/о +9.8 +8.3 90 +7 +7 холодно 1017.4 1003.2
17 10.06 С 4 16 км дождь н/о +9.4 +7.9 90 +6 +6 очень
холодно
1017.2 1003.0
18 10.06 С 6 20 км дождь н/о +9.3 +7.5 89 +6 +6 очень
холодно
1017.1 1002.8 +12.9 8
19 10.06 С 5 20 км дождь н/о +9.3 +7.8 90 +6 +6 прохладно 1016.8 1002.5
20 10.06 С 5 11 км дождь н/о +10.3 +9.3 94 +7 +7 прохладно 1016.7 1002.4
21 10.06 С 6 28 км слаб. дождь н/о +9.9 +8.1 89 +6 +6 холодно 1016.3 1002.0
22 10.06 С 7-12
{13}
22 км в посл. час дождь н/о +10.3 +8.9 91 +7 +7 по сезону 1015.8 1001.6
23 10.06 С 6-11
{13}
30 км в посл. час дождь н/о +10.2 +8.7 90 +7 +7 по сезону 1015.9 1001.7
00 11.06 С 5 14 км слаб. ливневой дождь н/о +10.1 +8.9 92 +7 +7 прохладно 1015.7 1001.5 6
01 11.06 С 5 4700 м дождь н/о +10.0 +9.1 94 +7 +7 по сезону 1015.5 1001.3
02 11.06 С 6 4400 м сильн. дождь н/о +9.9 +9.1 95 +6 +6 по сезону 1015.1 1000.8
03 11.06 С 6-12
{13}
4600 м дождь н/о +10.0 +9.2 95 +6 +6 прохладно 1015.0 1000.8
04 11.06 С 6-13
{13}
4400 м сильн. дождь н/о +10.1 +9.4 95 +6 +6 по сезону 1014.7 1000.5
05 11.06 С 6 4200 м дождь н/о +10.1 +9.3 95 +6 +6 по сезону 1015.0 1000.8
06 11.06 С 7-13
{13}
7000 м дождь н/о +10.0 +9.2 95 +6 +6 прохладно 1015.1 1000.9 +9.3 27
07 11.06 С 6-12
{14}
6000 м дождь н/о +9.9 +9.0 94 +6 +6 прохладно 1015.1 1000.9
08 11.06 СВ 6-12
{13}
10 км слаб. дождь н/о +9.8 +9.0 95 +6 +6 холодно 1015.4 1001.2
09 11.06 СВ 6 6000 м дождь н/о +9.7 +8.9 95 +6 +6 холодно 1015.5 1001.2
10 11.06 СВ 6 9000 м слаб. дождь н/о +9.7 +8.8 94 +6 +6 очень
холодно
1015.5 1001.3
11 11.06 СВ 6 6000 м слаб. морось н/о +9.7 +8.6 93 +6 +6 очень
холодно
1016.0 1001.8
12 11.06 СВ 5
{13}
11 км слаб. морось н/о +9.9 +8.8 93 +7 +7 очень
холодно
1016.0 1001.8 9
13 11.06 СВ 6-13
{13}
15 км слаб. морось с дождем н/о +9.9 +8.4 90 +6 +6 очень
холодно
1016.1 1001.9
14 11.06 СВ 6 11 км слаб. дождь н/о +9.5 +8.2 92 +6 +6 очень
холодно
1016.5 1002.3
15 11.06 СВ 5 16 км слаб. морось н/о +9.4 +8.4 93 +6 +6 очень
холодно
1016.7 1002.4
16 11.06 С 6 13 км слаб. дождь н/о +9.1 +7.6 90 +5 +5 очень
холодно
1016.5 1002.2
17 11.06 СВ 6 8000 м слаб. дождь н/о +8.9 +7.7 92 +5 +5 очень
холодно
1016.6 1002.3
18 11.06 СВ 4 4100 м дождь н/о +8.7 +8.1 96 +6 +6 очень
холодно
1016.5 1002.2 +10.0 13
19 11.06 С 4 3800 м дождь н/о +8.6 +8.1 97 +5 +5 прохладно 1016.2 1001.9
20 11.06 С 4 5000 м дождь н/о +8.8 +8.2 96 +6 +6 холодно 1016.1 1001.8
21 11.06 С 5 4700 м слаб. дождь н/о +8.8 +8.1 95 +5 +5 очень
холодно
1016.2 1001.9
22 11.06 С 4 6000 м слаб. морось н/о +8.7 +8.1 96 +5 +5 по сезону 1015.8 1001.5
23 11.06 С 4 3600 м дождь н/о +8.7 +8.1 96 +6 +6 по сезону 1015.3 1001.1
00 12.06 С 4 3900 м слаб. морось н/о +8.6 +8.1 97 +5 +5 прохладно 1014.8 1000.5 9
01 12.06 С 4 5000 м слаб. дождь н/о +8.7 +8.2 97 +5 +5 по сезону 1014.0 999.8
02 12.06 С 5 3400 м слаб. морось н/о +8.8 +8.2 96 +5 +5 прохладно 1013.2 999.0
03 12.06 С 4 5000 м слаб. дождь н/о +8.9 +8.3 96 +6 +6 прохладно 1012.6 998.3
04 12.06 С 4 5000 м в посл. час дождь н/о +9.0 +8.4 96 +6 +6 по сезону 1012.1 997.9
05 12.06 С 4 2900 м слаб. морось н/о +9.1 +8.6 97 +6 +6 по сезону 1011.7 997.5
06 12.06 С 3 6000 м в посл. час морось н/о +9.4 +9.0 97 +7 +7 прохладно 1011.3 997.1 +8.4 11
07 12.06 С 4 19 км н/о +10.4 +9.9 97 +8 +8 по сезону 1010.6 996.5
08 12.06 С 3 4100 м дымка н/о +10.5 +9.9 96 +8 +8 прохладно 1010.9 996.8
09 12.06 С 2 7000 м дымка н/о +11.1 +10.5 96 +10 +10 прохладно 1010.7 996.6
10 12.06 С 4 5000 м дымка н/о +11.8 +10.9 94 +10 +10 прохладно 1010.6 996.5
11 12.06 С 3 10 км дым н/о +12.4 +11.4 94 +11 +11 прохладно 1010.3 996.2
12 12.06 С 2 2900 м дымка н/о +12.7 +12.0 96 +12 +12 прохладно 1010.2 996.2
13 12.06 СВ 2 8000 м в посл. час дождь н/о +13.1 +12.6 97 +12 +12 прохладно 1009.6 995.6
14 12.06 С 2 23 км н/о +13.7 +12.1 90 +13 +13 по сезону 1008.9 994.9
15 12.06 С 2 19 км н/о +14.0 +12.2 89 +13 +13 прохладно 1009.0 995.0
16 12.06 С 2 5000 м слаб. морось н/о +13.7 +12.2 91 +13 +13 по сезону 1008.5 994.5
17 12.06 Ю 2 8000 м слаб. дождь н/о +12.8 +12.0 95 +12 +12 прохладно 1007.9 993.9
18 12.06 ЮЗ 2 5000 м дождь н/о +12.5 +12.0 97 +12 +12 прохладно 1007.5 993.5 +14.3 6
19 12.06 ЮЗ 2 4800 м дождь н/о +12.2 +11.7 97 +11 +11 по сезону 1007.1 993.1
20 12.06 ЮЗ 3 8000 м дождь н/о +11.9 +11.6 98 +10 +10 по сезону 1006.7 992.7
21 12.06 штиль 0 7000 м дождь н/о +11.7 +11.2 97 +11 +11 по сезону 1006.7 992.7
22 12.06 СВ 2 900 м сильн. дождь н/о +11.4 +11.0 97 +10 +10 тепло 1006.3 992.3
23 12.06 ЮЗ 3 4500 м дождь н/о +11.0 +10.6 97 +9 +9 по сезону 1005.8 991.7
00 13.06 Ю 2 4100 м слаб. дождь н/о +10.7 +10.3 97 +9 +9 по сезону 1005.0 990.9 26
01 13.06 Ю 2 8000 м в посл. час дождь н/о +10.3 +9.9 97 +9 +9 тепло 1004.4 990.4
02 13.06 ЮВ 2 6000 м в посл. час дождь н/о +10.1 +9.7 97 +8 +8 по сезону 1003.6 989.5
03 13.06 СВ 3 4500 м дымка н/о +9.9 +9.5 97 +8 +8 по сезону 1002.8 988.8
04 13.06 СВ 2 6000 м слаб. морось н/о +9.7 +9.3 97 +8 +8 по сезону 1002.3 988.3
05 13.06 С 2 5000 м в посл. час дождь н/о +9.9 +9.6 98 +9 +9 по сезону 1002.0 988.0
06 13.06 С 2 11 км слаб. морось с дождем н/о +10.1 +9.7 97 +9 +9 по сезону 1001.9 987.9 +9.7 26
07 13.06 З 2 14 км слаб. морось н/о +10.8 +10.0 95 +10 +10 по сезону 1001.6 987.6
08 13.06 З 2 30 км в посл. час морось н/о +11.4 +9.3 87 +11 +11 по сезону 1001.7 987.8
09 13.06 З 2 15 км н/о +11.3 +9.7 90 +10 +10 прохладно 1001.9 987.9
10 13.06 З 2 26 км в посл. час дождь н/о +11.5 +10.0 90 +11 +11 прохладно 1002.1 988.1
11 13.06 З 3 7000 м слаб. морось с дождем н/о +11.6 +9.6 88 +10 +10 холодно 1002.4 988.5
12 13.06 ЮЗ 3 9000 м в посл. час дождь н/о +11.8 +10.8 94 +10 +10 холодно 1002.3 988.4 0.2
13 13.06 ЮЗ 3 21 км н/о +13.8 +10.8 82 +13 +13 по сезону 1002.2 988.3
14 13.06 ЮЗ 3 29 км в посл. час дождь н/о +12.8 +10.9 88 +12 +12 прохладно 1002.4 988.5
15 13.06 СЗ 2 14 км слаб. ливневой дождь н/о +11.8 +10.4 91 +11 +11 холодно 1002.9 988.9
16 13.06 С 3 6000 м дождь н/о +11.5 +9.9 90 +10 +10 прохладно 1003.2 989.2
17 13.06 СЗ 1 9000 м дождь н/о +11.3 +9.8 90 +11 +11 прохладно 1003.6 989.6
18 13.06 С 1 6000 м дождь н/о +11.1 +9.7 91 +11 +11 прохладно 1004.1 990.1 +14.0 2
19 13.06 штиль 0 13 км слаб. дождь н/о +11.2 +9.7 90 +11 +11 по сезону 1004.5 990.5
20 13.06 З 2 45 км в посл. час дождь н/о +11.1 +9.9 92 +10 +10 по сезону 1005.3 991.3
21 13.06 ЮЗ 2 35 км н/о +10.4 +9.5 94 +9 +9 прохладно 1006.1 992.1
22 13.06 З 3 16 км н/о +9.7 +8.8 94 +8 +8 по сезону 1006.9 992.8
23 13.06 ЮЗ 1 11 км н/о +8.6 +7.5 93 +8 +8 по сезону 1006.6 992.5
00 14.06 ЮЗ 2 11 км дымка н/о +8.8 +8.4 97 +7 +7 прохладно 1007.0 992.9 0.2
01 14.06 Ю 2 8000 м слаб. ливневой дождь н/о +9.4 +8.8 96 +8 +8 по сезону 1006.8 992.7
02 14.06 Ю 1 7000 м в посл. час дождь н/о +9.5 +9.0 97 +9 +9 по сезону 1006.4 992.3
03 14.06 Ю 3 3200 м ливневой дождь н/о +9.7 +9.3 97 +8 +8 по сезону 1006.5 992.4
04 14.06 Ю 3 4200 м н/о +9.9 +9.6 98 +7 +7 по сезону 1006.6 992.5
05 14.06 Ю 2 4800 м слаб. дождь н/о +9.9 +9.5 97 +9 +9 по сезону 1006.8 992.7
06 14.06 Ю 2 7000 м дождь н/о +10.2 +9.9 98 +8 +8 по сезону 1006.8 992.8 +8.1 2
07 14.06 Ю 3 5000 м дождь н/о +10.8 +10.5 98 +9 +9 по сезону 1006.8 992.7
08 14.06 Ю 4 8000 м слаб. дождь н/о +11.5 +11.2 98 +9 +9 прохладно 1006.9 992.9
09 14.06 З 5 3000 м дождь н/о +10.6 +9.1 90 +8 +8 холодно 1007.5 993.4
10 14.06 ЮЗ 3 50 км в посл. час дождь н/о +12.6 +11.1 91 +11 +11 прохладно 1007.6 993.6
11 14.06 ЮЗ 3 40 км н/о +14.1 +10.3 78 +13 +13 прохладно 1007.9 994.0
12 14.06 ЮЗ 3 35 км н/о +15.0 +10.7 75 +14 +14 по сезону 1008.3 994.4 4
13 14.06 Ю 4 30 км в посл. час дождь н/о +15.3 +9.5 68 +14 +14 по сезону 1008.6 994.8
14 14.06 Ю 4 25 км в посл. час дождь н/о +15.9 +10.1 68 +15 +15 по сезону 1008.6 994.7
15 14.06 Ю 3 45 км слаб. ливневой дождь н/о +15.2 +10.6 74 +15 +15 по сезону 1008.7 994.9
16 14.06 Ю 4 50 км в посл. час дождь н/о +15.2 +10.7 74 +14 +14 по сезону 1008.8 994.9
17 14.06 0 30 км в посл. час дождь н/о +15.5 +10.6 73 1008.9 995.0
18 14.06 Ю 4 30 км в посл. час дождь н/о +15.2 +10.7 74 +14 +14 по сезону 1009.1 995.2 +16.1 4
19 14.06 ЮЗ 4 40 км н/о +14.8 +10.1 73 +14 +14 тепло 1009.3 995.4
20 14.06 Ю 3 35 км в посл. час дождь н/о +13.2 +10.8 85 +12 +12 по сезону 1009.7 995.7
21 14.06 Ю 3 27 км н/о +12.4 +10.4 88 +11 +11 по сезону 1010.3 996.3
22 14.06 Ю 3 30 км н/о +12.1 +10.7 91 +11 +11 тепло 1010.5 996.5
23 14.06 Ю 2 30 км в посл. час дождь н/о +12.2 +10.6 90 +11 +11 тепло 1010.8 996.8
00 15.06 Ю 2 35 км н/о +10.9 +9.4 90 +9 +9 по сезону 1010.8 996.7 0.4
01 15.06 Ю 2 30 км н/о +10.7 +9.3 91 +9 +9 тепло 1011.1 997.0
02 15.06 Ю 2 24 км н/о +11.0 +8.8 86 +10 +10 по сезону 1010.8 996.7
03 15.06 Ю 2 17 км н/о +9.6 +8.2 91 +8 +8 по сезону 1010.7 996.5
04 15.06 Ю 3 19 км н/о +9.5 +8.3 92 +7 +7 по сезону 1010.6 996.4
05 15.06 Ю 3 19 км н/о +9.7 +8.6 93 +8 +8 по сезону 1010.8 996.6
06 15.06 Ю 2 19 км н/о +10.0 +8.9 93 +8 +8 по сезону 1010.8 996.7 +9.4 0.6
07 15.06 Ю 2 19 км н/о +12.3 +9.4 82 +11 +11 по сезону 1010.9 996.8
08 15.06 Ю 4 50 км н/о +14.2 +9.7 74 +13 +13 по сезону 1010.8 996.8
09 15.06 Ю 5 50 км н/о +14.3 +8.9 70 +13 +13 по сезону 1010.9 996.9
10 15.06 Ю 5 19 км н/о +14.8 +9.6 71 +13 +13 по сезону 1010.8 996.9
11 15.06 Ю 4 35 км н/о +15.1 +10.0 72 +14 +14 по сезону 1010.9 997.0
12 15.06 Ю 4 29 км н/о +15.4 +9.6 68 +14 +14 по сезону 1011.0 997.2
13 15.06 Ю 4 45 км н/о +15.6 +10.2 70 +15 +15 по сезону 1010.8 996.9
14 15.06 Ю 5 35 км в посл. час дождь н/о +16.1 +10.3 68 +15 +15 по сезону 1010.5 996.7
15 15.06 Ю 5 22 км ливневой дождь н/о +14.1 +11.2 83 +12 +12 прохладно 1010.9 996.9
16 15.06 Ю 4 45 км слаб. дождь н/о +13.2 +11.6 90 +12 +12 прохладно 1011.0 997.0
17 15.06 Ю 3 40 км в посл. час дождь н/о +13.8 +11.3 85 +13 +13 прохладно 1010.8 996.9
18 15.06 З 4 25 км ливневой дождь н/о +12.2 +8.1 76 +10 +10 холодно 1011.4 997.3 +16.3 2
19 15.06 ЮЗ 1 35 км в посл. час дождь н/о +12.2 +9.3 82 +13 +13 тепло 1011.2 997.2
20 15.06 З 1 40 км в посл. час дождь н/о +12.0 +10.8 92 +12 +12 по сезону 1011.4 997.3
21 15.06 штиль 0 7000 м в посл. час дождь н/о +11.2 +10.4 95 +10 +10 прохладно 1011.8 997.7
22 15.06 ЮЗ 3 14 км н/о +10.8 +9.7 93 +9 +9 тепло 1012.4 998.2

 

Местоположение метеостанции Ноттингем (Великобритания): широта 53.00 долгота -1.25 высота над уровнем моря 117 м.

В архиве по умолчанию представлена погода в Ноттингеме за последнюю неделю. Архивные данные за месяц целиком и за предыдущие месяцы, начиная с января 2011 года, Вы можете получить, выбрав интересующий диапазон дат из раскрывающегося списка и нажав кнопку "Ввод!".


*Определитесь, кто Вы:
робот инопланетянин человек

Внимание! Время в таблицах - всемирное. Для получения местного времени необходимо прибавить поправку, которая равна 0 ч.

Смотрите также архив погоды в соседних городах и на ближайших метеорологических станциях:

Погода в Крануэлле (Великобритания) (50 км)
Погода в Лик-Торнклифф (Великобритания) (51 км)
Погода в Уоддингтоне (Великобритания) (52 км)
Погода в Скемптоне (Великобритания) (57 км)
Погода в Колсхилле (Великобритания) (65 км)
Погода в Виттеринге (Великобритания) (67 км)
Погода в Черч Лоуфорд (Великобритания) (70 км)
Погода в Лидс-Брэдфорд (Великобритания) (72 км)
Погода на Авиабазе Coningsby (Великобритания) (73 км)
Погода на Ростерн Мир (Великобритания) (84 км)

Пояснения к столбцам:

Ветер - указаны скорость ветра в м/с - средняя за 10 мин, порывы в срок и между сроками (в фигурных скобках) и направление, откуда дует ветер: С - северный, СВ - северо-восточный, В - восточный, ЮВ - юго-восточный, Ю - южный, ЮЗ - юго-западный, З - западный, СЗ - северо-западный.
Видимость - горизонтальная дальность видимости в метрах или километрах. При видимости от 1 до 10 км при отсутствии осадков обычно наблюдается дымка, при ухудшении видимости до 1 км и менее - туман. В сухую погоду видимость может ухудшаться дымом, пылью или мглою.
Явления - указаны атмосферные явления, наблюдавшиеся в срок или в последний час перед сроком; фигурными скобками обозначены явления, наблюдавшиеся между сроками (за 1-3 часа до срока); квадратными скобками обозначены град или гололедные отложения с указанием их диаметра в мм.
Облачность - указаны через наклонную черту общая и нижняя облачность в баллах и высота нижней границы облаков в метрах; квадратными скобками обозначены формы облаков: Ci - перистые, Cs - перисто-слоистые, Cc - перисто-кучевые, Ac - высококучевые, As - высокослоистые, Sc - слоисто-кучевые, Ns - слоисто-дождевые, Cu - кучевые, Cb - кучево-дождевые. Подробнее классификацию облаков см. в Атласе облаков (PDF).
T - Температура воздуха - температура, измеренная на высоте 2 м над землей.
Td - Температура точки росы - температура, при понижении до которой содержащийся в воздухе водяной пар достигнет насыщения.
f - Относительная влажность воздуха - влажноcть воздуха, измеренная на высоте 2 м над землей.
Te - Эффективная температура - температура, которую ощущает одетый по сезону человек в тени. Характеристика душности погоды. При расчете учитывается влияние влажности воздуха и скорости ветра на теплоощущения человека.
Tes - Эффективная температура на солнце - температура, которую ощущает человек, с поправкой на солнечный нагрев. Характеристика знойности погоды. Зависит от высоты солнца над горизонтом, облачности и скорости ветра. Ночью, в пасмурную погоду, а также при ветре 12 м/с и более поправка равна нулю.
P - Атмосферное давление - приведенное к уровню моря атмосферное давление.
Po - Атмосферное давление - измеренное на уровне метеостанции атмосферное давление.
Tmin - Минимальная температура - минимум температуры воздуха на высоте 2 м над землей.
Tmax - Максимальная температура - максимум температуры воздуха на высоте 2 м над землей.
R - Количество осадков - Количество выпавших осадков за период времени, мм. При наведении курсора мыши на число - период времени, за который выпало указанное количество осадков.
R24 - Количество осадков - Количество выпавших осадков за 24 часа, мм.
S - Снежный покров - Высота снежного покрова, см. При наведении курсора мыши на число - состояние снежного покрова и степень покрытия местности в баллах.